Wind_Speed
22 22 20 24 28 28 31 32 29 23 29 25 23 21 20 25 23 16 16 18 26 30 32 33 33 35 33 31 29 29 28 28 28 25 25 27 34 41 40 41 41 41 40 45
21 23 25 23 26 28 27 28 30 32 31 23 30 32 31 30 28 21 22 21 26 28 28 30 28 28 26 26 25 24 25 25 23 23 25 29 36 37 40 46 49 49 46 41
17 18 22 24 27 27 29 27 25 25 27 30 26 22 29 31 26 24 25 25 28 29 26 25 25 24 23 21 21 21 20 21 23 25 26 27 28 30 35 42 49 48 45 37
12 2 14 15 19 23 25 28 24 21 18 23 21 24 28 28 20 25 21 20 23 25 24 22 22 20 19 19 20 21 21 21 22 22 22 22 23 24 26 32 42 45 38 35
12 14 8 14 7 17 22 24 27 21 22 14 14 14 17 12 13 18 18 20 23 24 23 23 23 23 23 21 20 20 19 18 19 19 19 20 21 22 23 26 33 31 31 27
9 15 17 2 9 14 13 15 24 26 20 22 15 13 14 11 11 14 19 19 23 25 26 27 27 27 26 23 20 17 14 14 13 15 17 18 17 19 20 23 24 25 24 22
11 11 10 10 13 5 8 7 22 24 27 23 16 6 8 13 13 15 20 23 28 27 28 31 30 27 24 20 15 12 11 13 14 15 17 17 17 17 19 21 21 24 22 21
6 11 15 8 1 2 14 18 10 13 18 19 16 17 17 19 22 25 28 26 29 32 30 26 24 21 16 13 10 11 13 15 16 17 18 19 20 18 20 19 23 20 18 22
10 7 5 6 2 1 8 3 5 12 20 26 31 28 29 29 26 29 30 27 25 24 24 21 20 16 13 11 12 13 15 16 15 15 16 16 15 16 18 18 17 18 19 18
9 5 8 9 9 5 5 10 19 19 25 26 27 31 28 23 23 23 21 20 19 17 16 13 11 11 10 11 11 12 12 14 15 16 16 13 12 11 12 12 11 13 15 18
5 5 12 15 12 7 7 11 18 21 21 20 20 24 28 24 19 19 18 14 11 11 11 13 12 10 9 9 11 14 15 15 15 13 11 11 12 13 10 13 12 11 12 13
5 13 13 14 13 4 13 16 17 22 26 24 25 24 24 25 19 13 15 12 8 8 8 9 9 9 10 12 14 15 14 13 10 9 8 8 8 14 15 12 11 10 11 11
4 8 20 21 10 8 16 17 22 24 22 22 22 22 20 20 16 15 16 12 5 4 6 9 10 12 11 12 13 14 12 11 8 10 10 11 10 10 8 15 12 10 10 12
19 26 19 20 13 14 10 17 21 20 18 17 16 14 13 11 11 12 12 10 6 3 5 8 10 11 11 11 11 9 9 7 8 11 12 9 9 10 10 10 8 12 13 12
24 25 22 19 25 9 9 11 16 15 11 12 12 12 11 10 8 7 4 3 2 3 3 6 8 9 9 9 9 6 4 8 12 12 9 8 9 10 12 11 10 10 13 13
16 19 17 19 16 11 10 12 11 10 8 9 10 11 9 9 7 3 0 1 2 3 2 5 9 10 11 10 10 9 9 13 13 7 8 8 9 9 9 10 12 13 11 10
14 20 19 12 12 12 15 11 8 8 8 11 11 10 11 9 5 4 3 1 1 1 2 5 10 10 11 11 12 8 7 9 12 10 9 8 7 7 7 9 9 11 11 12
14 15 12 5 8 8 9 5 5 6 7 6 4 4 6 4 5 6 5 4 3 3 4 7 9 11 12 12 11 8 10 11 10 8 7 7 7 7 8 9 9 10 10 15
10 8 6 8 7 5 3 3 5 5 5 7 5 5 6 7 7 6 4 5 3 5 4 7 12 9 10 12 10 9 8 8 7 7 7 8 8 9 9 10 11 11 13 13
8 6 8 9 7 7 6 7 5 4 5 5 4 7 7 7 7 5 5 8 7 6 9 11 10 11 10 9 9 7 7 7 6 6 6 7 9 10 10 11 10 11 12 12
9 9 11 12 11 9 8 7 7 8 8 8 8 8 7 6 7 6 4 5 5 8 8 10 7 7 7 10 8 6 5 5 5 5 5 6 9 10 11 11 10 11 14 13
8 8 9 9 9 10 10 10 9 9 9 9 9 8 7 8 6 5 6 8 5 8 5 7 7 10 7 8 5 5 4 4 4 4 5 6 8 9 10 11 12 11 12 12
8 8 11 12 10 9 10 11 11 9 8 8 8 8 8 7 6 5 6 5 3 5 4 5 6 6 6 5 4 5 5 4 3 4 5 7 8 10 11 11 11 11 11 11
7 7 7 9 11 8 10 12 11 10 8 7 6 6 7 7 5 6 4 2 1 4 4 5 5 4 3 4 4 5 5 5 5 6 6 7 7 8 10 12 14 14 13 13
10 8 9 10 11 12 11 11 8 10 9 4 5 5 4 5 6 5 3 4 4 0 4 6 6 7 7 7 9 9 10 10 10 9 10 10 10 10 11 11 12 14 15 14
12 12 11 11 10 10 10 10 10 10 10 9 7 7 7 7 7 7 6 6 5 6 5 7 7 10 10 11 12 13 13 13 13 13 12 12 12 12 13 14 14 14 14 15
14 14 12 11 12 11 11 11 10 10 10 9 10 10 10 9 10 10 9 9 10 11 11 12 12 13 12 13 14 14 14 15 15 14 14 14 14 14 13 13 14 14 15 15
Wind_Direction
230 253 240 234 219 222 233 239 240 236 234 236 240 248 244 252 254 238 222 202 199 195 195 197 200 203 207 210 209 212 217 219 223 221 220 222 230 235 230 224 225 234 241 259
243 242 239 237 232 239 228 236 241 242 247 237 232 236 244 246 247 236 224 208 203 195 196 194 195 195 197 200 203 207 210 218 218 219 218 229 242 240 234 230 236 236 245 248
242 231 233 241 242 228 228 236 232 234 237 237 246 240 232 236 233 234 227 209 199 195 196 191 190 189 189 189 191 197 204 204 208 216 225 231 239 240 242 240 229 230 236 241
255 173 236 250 235 239 239 227 233 245 237 225 222 239 230 236 243 237 220 204 194 189 189 183 180 182 176 181 184 188 195 198 203 210 216 222 230 236 239 240 236 230 235 244
238 237 285 289 313 232 238 238 225 222 230 232 237 237 233 224 219 227 206 201 185 180 177 168 167 170 167 168 173 176 183 191 200 204 208 214 222 231 227 228 230 225 234 254
203 239 231 145 17 343 317 247 240 235 222 233 215 226 231 184 200 201 186 184 174 167 165 161 157 157 156 156 154 158 168 181 194 204 205 214 218 222 231 226 219 220 237 245
202 225 236 30 341 45 234 262 231 212 221 224 212 262 129 144 156 162 150 158 148 148 148 149 146 148 147 148 150 153 176 191 197 199 201 203 208 211 225 228 218 226 243 231
206 230 230 14 262 229 333 305 275 217 203 192 152 132 126 126 135 135 127 135 133 134 135 135 137 140 145 149 157 173 186 196 200 196 198 200 205 207 217 221 228 233 239 234
220 231 65 21 298 325 330 13 118 134 138 143 130 120 114 118 124 118 119 124 128 129 129 137 144 151 152 175 191 198 209 199 201 205 200 206 208 216 213 217 224 243 238 235
184 79 72 89 80 66 72 92 105 108 118 118 115 112 108 108 103 101 106 111 119 124 128 134 147 159 173 185 200 208 205 205 203 196 195 199 195 209 209 228 237 238 229 226
115 126 119 76 70 87 98 98 100 94 91 92 94 92 100 90 84 92 94 92 100 114 129 146 152 160 170 184 184 175 173 172 179 188 191 189 187 196 210 222 217 230 218 214
180 133 90 60 38 39 96 86 85 84 82 75 78 74 77 86 80 89 91 83 92 112 137 143 144 148 160 163 156 155 161 163 170 160 176 185 226 220 217 224 210 224 238 233
66 106 106 105 68 51 85 87 90 84 76 81 75 76 74 79 84 83 91 87 78 105 131 141 139 133 139 149 158 156 153 155 165 167 176 178 195 201 204 217 225 256 235 208
112 104 86 108 70 13 48 75 73 68 75 76 80 82 81 77 71 74 77 76 75 99 141 139 130 135 152 156 152 157 160 189 178 169 167 181 198 199 201 208 222 218 209 226
84 97 104 110 105 50 35 66 79 69 56 73 68 58 54 54 53 43 61 67 74 111 124 139 138 143 151 153 150 166 185 176 162 166 177 198 193 189 199 210 203 203 215 219
92 90 78 78 98 105 81 57 56 77 74 63 62 60 56 61 52 53 42 49 129 186 174 156 167 169 159 160 145 149 156 168 166 197 203 182 190 192 203 204 206 209 206 203
71 73 72 46 40 23 40 27 7 26 24 37 37 35 37 51 65 47 50 84 157 193 149 170 162 170 168 163 158 165 182 177 174 170 163 164 169 177 192 205 217 217 221 223
90 73 75 35 40 29 41 26 12 28 33 28 24 44 56 46 59 48 31 45 76 92 116 161 166 163 162 167 167 172 169 157 165 168 181 183 187 202 214 223 228 230 235 226
75 89 97 81 59 49 38 23 31 21 18 32 25 35 52 39 41 49 53 65 88 93 122 154 170 164 166 160 152 156 174 174 184 197 205 211 216 229 236 239 241 239 231 233
96 93 84 80 76 62 48 37 37 47 40 46 47 52 57 52 60 69 80 91 92 121 121 132 144 155 159 161 144 155 182 192 199 214 220 235 244 244 244 240 233 234 234 235
100 90 74 63 61 62 58 57 61 59 51 53 58 55 48 44 52 61 86 93 81 118 133 130 139 141 146 145 139 169 178 195 209 222 242 239 240 237 245 244 239 246 251 250
85 75 68 60 65 61 57 56 61 62 64 64 59 57 58 54 66 76 74 76 83 101 127 131 141 144 152 133 161 167 181 188 201 217 227 233 238 241 242 243 244 244 245 247
84 80 66 55 60 60 61 57 51 49 47 47 45 40 38 37 42 35 52 59 120 139 147 161 160 141 133 137 173 177 183 180 207 242 254 258 257 254 250 248 246 245 244 245
66 59 48 41 40 46 47 37 30 22 19 28 25 24 29 27 42 22 23 5 45 161 169 196 179 171 146 199 202 211 230 251 265 265 264 272 267 263 262 255 248 243 245 251
29 30 30 33 29 31 24 15 20 22 18 23 17 7 18 23 19 3 14 12 21 244 211 235 230 242 242 247 251 252 260 266 267 264 265 269 272 268 263 258 248 242 247 252
41 40 43 42 34 21 8 5 2 6 358 354 346 340 342 339 328 328 326 325 328 311 298 273 272 265 255 261 264 264 265 264 264 267 265 263 266 267 268 259 254 253 255 258
44 46 37 32 24 14 2 1 353 338 337 334 330 331 333 332 332 338 326 308 297 292 282 273 267 262 261 264 266 265 261 260 260 261 263 266 265 266 270 267 256 254 258 262
Height
1390 1386 1384 1387 1391 1397 1396 1393 1400 1397 1399 1399 1400 1403 1406 1407 1407 1412 1416 1417 1420 1424 1429 1435 1442 1447 1455 1463 1469 1476 1481 1486 1489 1493 1496 1498 1499 1501 1505 1508 1509 1511 1513 1515
1388 1382 1382 1386 1383 1385 1385 1387 1386 1392 1389 1385 1392 1399 1400 1400 1400 1405 1410 1410 1415 1420 1425 1429 1436 1442 1448 1455 1462 1468 1473 1478 1484 1486 1488 1489 1489 1491 1495 1496 1498 1503 1506 1508
1392 1374 1376 1387 1374 1372 1378 1376 1379 1387 1380 1386 1385 1386 1389 1391 1395 1397 1401 1403 1408 1413 1421 1426 1432 1437 1443 1449 1455 1460 1464 1469 1473 1475 1477 1479 1482 1483 1486 1488 1490 1495 1497 1502
1386 1383 1404 1366 1356 1360 1364 1366 1367 1371 1369 1372 1377 1380 1384 1385 1386 1390 1394 1399 1404 1409 1416 1421 1428 1434 1438 1442 1447 1452 1456 1460 1464 1467 1470 1472 1474 1477 1479 1483 1486 1491 1494 1496
1390 1383 1371 1365 1359 1362 1365 1363 1360 1366 1367 1367 1373 1382 1383 1380 1381 1386 1388 1395 1398 1404 1410 1415 1422 1427 1432 1438 1442 1446 1450 1454 1457 1461 1464 1466 1468 1470 1472 1474 1480 1485 1488 1490
1376 1386 1393 1373 1376 1378 1377 1373 1353 1355 1359 1367 1371 1379 1365 1372 1377 1382 1384 1390 1394 1399 1404 1410 1416 1422 1428 1434 1438 1442 1445 1448 1452 1455 1457 1459 1463 1466 1471 1474 1473 1479 1483 1484
1373 1381 1370 1374 1378 1373 1388 1365 1345 1350 1357 1361 1365 1367 1368 1368 1377 1382 1382 1389 1389 1398 1404 1408 1414 1420 1427 1432 1436 1439 1443 1445 1447 1449 1452 1454 1457 1458 1469 1474 1474 1476 1478 1482
1368 1378 1380 1379 1373 1374 1375 1367 1360 1356 1356 1361 1368 1370 1371 1373 1379 1383 1383 1393 1394 1396 1404 1411 1416 1422 1426 1430 1434 1437 1440 1442 1444 1446 1449 1452 1453 1454 1460 1468 1472 1473 1474 1477
1371 1365 1378 1378 1379 1376 1378 1371 1364 1361 1361 1367 1366 1371 1373 1379 1387 1385 1388 1395 1399 1403 1407 1411 1414 1420 1423 1427 1430 1433 1436 1438 1441 1445 1449 1450 1452 1456 1459 1465 1469 1470 1471 1474
1372 1376 1378 1381 1380 1382 1384 1379 1376 1375 1373 1375 1376 1372 1378 1388 1387 1389 1395 1400 1403 1406 1408 1412 1414 1416 1419 1424 1428 1431 1434 1438 1442 1444 1447 1449 1453 1456 1461 1464 1466 1467 1469 1470
1371 1379 1379 1381 1386 1390 1392 1388 1386 1383 1382 1382 1382 1382 1380 1387 1394 1397 1399 1405 1409 1410 1411 1412 1412 1414 1417 1420 1424 1428 1432 1435 1440 1442 1445 1449 1452 1454 1460 1461 1463 1466 1466 1468
1366 1375 1379 1387 1389 1396 1391 1388 1387 1385 1386 1388 1387 1389 1387 1388 1394 1408 1406 1407 1413 1414 1413 1413 1413 1414 1416 1419 1423 1427 1432 1437 1439 1441 1444 1448 1450 1455 1457 1458 1461 1463 1465 1467
1380 1381 1386 1388 1399 1401 1392 1394 1391 1391 1393 1394 1395 1397 1399 1401 1408 1406 1403 1407 1416 1417 1416 1414 1415 1415 1418 1422 1426 1426 1430 1433 1437 1440 1444 1446 1451 1454 1455 1457 1459 1461 1462 1463
1388 1389 1396 1399 1400 1403 1403 1397 1393 1398 1399 1402 1404 1407 1408 1410 1408 1406 1406 1410 1414 1419 1420 1417 1415 1416 1418 1421 1424 1428 1431 1432 1438 1439 1442 1446 1448 1451 1455 1457 1458 1457 1458 1461
1394 1398 1403 1409 1398 1408 1411 1407 1403 1405 1409 1409 1407 1406 1407 1405 1407 1408 1411 1414 1415 1418 1418 1417 1417 1418 1419 1422 1424 1427 1431 1434 1437 1439 1441 1443 1445 1447 1451 1454 1455 1456 1455 1457
1400 1399 1406 1406 1413 1416 1411 1409 1409 1412 1412 1411 1407 1407 1409 1408 1408 1412 1414 1413 1414 1416 1417 1414 1417 1418 1418 1421 1422 1427 1431 1433 1436 1439 1440 1442 1443 1445 1447 1450 1452 1455 1456 1456
1404 1406 1407 1411 1408 1409 1402 1405 1411 1410 1410 1407 1407 1407 1407 1408 1412 1414 1412 1412 1411 1412 1412 1414 1415 1416 1417 1419 1424 1428 1430 1432 1434 1437 1438 1439 1441 1443 1446 1448 1450 1451 1453 1454
1414 1412 1411 1412 1411 1410 1408 1412 1412 1412 1411 1412 1414 1413 1411 1413 1410 1409 1411 1409 1409 1409 1410 1412 1414 1415 1417 1419 1422 1427 1429 1431 1434 1435 1437 1438 1439 1442 1444 1446 1447 1448 1450 1448
1416 1417 1418 1415 1414 1416 1418 1417 1413 1415 1415 1411 1415 1414 1411 1410 1407 1409 1411 1408 1410 1409 1410 1411 1413 1417 1417 1418 1421 1425 1428 1430 1432 1434 1435 1436 1438 1440 1441 1442 1443 1444 1447 1447
1422 1424 1421 1420 1420 1419 1419 1417 1416 1419 1418 1416 1414 1412 1412 1411 1411 1412 1411 1410 1411 1412 1411 1412 1414 1416 1417 1418 1420 1424 1428 1429 1431 1433 1434 1435 1436 1437 1438 1439 1440 1441 1443 1444
1427 1426 1422 1421 1422 1421 1422 1421 1419 1418 1416 1415 1415 1413 1412 1413 1412 1412 1413 1410 1411 1413 1413 1414 1416 1419 1419 1418 1422 1425 1427 1429 1430 1431 1432 1433 1434 1435 1435 1436 1437 1438 1439 1439
1426 1426 1426 1425 1424 1424 1423 1420 1418 1417 1417 1417 1417 1417 1417 1415 1416 1416 1413 1411 1411 1412 1415 1417 1418 1418 1419 1420 1422 1424 1426 1428 1429 1430 1431 1431 1432 1432 1432 1432 1433 1434 1434 1435
1427 1427 1426 1426 1424 1423 1423 1423 1420 1420 1419 1419 1420 1420 1417 1416 1415 1413 1412 1412 1414 1415 1418 1417 1416 1418 1419 1421 1423 1424 1426 1427 1428 1428 1429 1429 1429 1429 1429 1429 1430 1431 1431 1432
1427 1425 1424 1423 1423 1423 1421 1418 1419 1420 1420 1420 1421 1421 1419 1416 1415 1417 1416 1415 1414 1416 1417 1416 1417 1418 1419 1422 1423 1423 1424 1425 1425 1426 1426 1425 1425 1426 1426 1426 1426 1427 1428 1429
1424 1423 1421 1421 1421 1420 1421 1422 1421 1421 1423 1423 1421 1422 1420 1418 1418 1421 1417 1415 1414 1415 1416 1415 1416 1417 1418 1420 1420 1420 1421 1421 1422 1423 1423 1422 1422 1422 1422 1422 1423 1423 1424 1424
1425 1425 1424 1423 1424 1425 1425 1424 1423 1422 1423 1423 1422 1422 1418 1418 1419 1416 1415 1414 1415 1414 1414 1413 1414 1415 1416 1416 1415 1415 1416 1416 1417 1417 1418 1418 1418 1418 1418 1418 1418 1418 1419 1419
1428 1428 1428 1428 1428 1428 1428 1426 1424 1426 1425 1424 1422 1420 1418 1417 1416 1413 1413 1412 1413 1411 1411 1411 1411 1411 1412 1411 1411 1411 1411 1412 1412 1413 1413 1413 1413 1414 1413 1413 1413 1413 1413 1413